Miscellaneous Local Product
Issued by NWS North Platte, NE

Home | Current Version | Previous Version | Text Only | Print | Product List | Glossary On
Versions: 1 2 3 4 5 6 7 8 9 10 11 12 13 14 15 16 17 18 19 20 21 22 23 24 25 26 27 28 29 30 31 32 33 34 35 36 37 38 39 40 41 42 43 44 45 46 47 48 49 50
001
AXUS43 KLBF 251810
MISLBF


WESTERN AND NORTH CENTRAL NEBRASKA HOURLY WEATHER ROUNDUP
NATIONAL WEATHER SERVICE NORTH PLATTE NE
100 PM CDT SUN JUN 25 2017

NOTE: "FAIR" INDICATES FEW OR NO CLOUDS BELOW 12,000 FEET WITH NO
SIGNIFICANT WEATHER AND/OR OBSTRUCTIONS TO VISIBILITY.

NOTE: STATIONS NOT REPORTING VARIABLES SUCH AS SKY/WEATHER OR
PRESSURE ARE PROVIDED BY RAWS AND APRS NETWORKS AND ARE NOT UNDER
NATIONAL WEATHER SERVICE QUALITY CONTROL.

...OBSERVATIONS IN AND NEAR THE EASTERN PANHANDLE OF NEBRASKA...

CITY           SKY/WX    TMP DP  RH WIND       PRES   REMARKS
PINE RIDGE     SUNNY     73  42  32 W6G18     30.31F
GORDON         FAIR      71  39  31 S7        30.32F
CHADRON        SUNNY     74  39  28 S7        30.29F
ALLIANCE       SUNNY     71  40  32 VRB7G17   30.33F
SIDNEY         MOSUNNY   69  44  40 SE14G23   30.36F
CRESCENT LAKE    N/A     70  42  35 S6G13       N/A
$$

...OBSERVATIONS IN NORTHERN NEBRASKA AND FAR SOUTHERN SOUTH DAKOTA...

CITY           SKY/WX    TMP DP  RH WIND       PRES   REMARKS
WINNER         FAIR      75  34  22 NW8       30.30F
VALENTINE      SUNNY     74  27  17 VRB7      30.31F
THEDFORD       SUNNY     74  36  24 E3        30.33F
AINSWORTH      SUNNY     70  37  29 CALM      30.33F
O`NEILL        SUNNY     70  36  28 N6        30.33F
ORD            SUNNY     73  32  22 VRB5      30.32F
BROKEN BOW     SUNNY     72  39  30 SE7       30.34F
VALENTINE NWR    N/A     71  35  27 NE3         N/A
HALSEY           N/A     73  31  21 S3          N/A
BUTTE            N/A     68  37  31 N3G15       N/A
CHAMBERS         N/A     75  43  31 CALM        N/A
EWING            N/A     70  43  37 NE3         N/A
$$

...OBSERVATIONS IN SOUTHWEST NEBRASKA AND FAR NORTHEAST COLORADO...

CITY           SKY/WX    TMP DP  RH WIND       PRES   REMARKS
WRAY           CLOUDY    61  52  72 SE13      30.36F
IMPERIAL       LGT RAIN  63  41  44 SE15      30.34F
OGALLALA       SUNNY     75  43  31 E12G17    30.33F
NORTH PLATTE   SUNNY     70  40  33 SE13      30.34F
MCCOOK         CLOUDY    69  45  41 E14       30.34F
LEXINGTON      CLOUDY    70  38  30 SE9       30.34F
STAPLETON        N/A     71  41  34 CALM        N/A
GOTHENBURG       N/A     65  41  41 E8          N/A
CALLAWAY         N/A     70  42  35 S6          N/A
$$

...OBSERVATIONS IN CENTRAL LINCOLN COUNTY AREA...

CITY           SKY/WX    TMP DP  RH WIND       PRES   REMARKS
N.P. AIRPORT   SUNNY     70  40  33 SE13      30.34F
N.P. DOWNTOWN    N/A     70  44  38 E5G12       N/A
N.P. SOUTHEAST   N/A     71  43  37 E3          N/A
N.P. HILLCREST   N/A     70  43  37 SE9         N/A
$$

...SOME OBSERVATIONS FROM AROUND THE REGION...

CITY           SKY/WX    TMP DP  RH WIND       PRES   REMARKS
DENVER         CLOUDY    63  50  62 N8        30.37F
LIMON          MOSUNNY   73  53  49 E15G23    30.33F
ASPEN          SUNNY     75  27  17 NW13      30.39F
LARAMIE        MOSUNNY   68  40  35 VRB6      30.39F
CASPER         SUNNY     71  34  25 VRB6      30.35F
CHEYENNE       CLOUDY    60  47  61 E9        30.40F
SCOTTSBLUFF    SUNNY     73  41  31 E9        30.32F
GRAND ISLAND   SUNNY     72  41  32 N3        30.34F
OMAHA          MOSUNNY   71  42  35 NW13      30.29F
SIOUX FALLS    MOSUNNY   69  46  43 NW10G23   30.28F
RAPID CITY     SUNNY     72  35  25 SE7       30.29F
BISMARCK       CLOUDY    54  49  83 SW6       30.27F
KANSAS CITY    MOSUNNY   76  50  40 NW6       30.29F
HILL CITY      RAIN      58  54  86 E7        30.38R FOG
WICHITA        CLOUDY    81  56  42 CALM      30.27F
DODGE CITY     CLOUDY    75  54  47 S15       30.28F
OKLAHOMA CITY  PTSUNNY   85  46  25 SE10      30.26F
DALLAS         MOSUNNY   85  65  51 NE10      30.20F
AMARILLO       SUNNY     74  62  66 S8        30.31F
$$




USA.gov is the U.S. government's official web portal to all federal, state and local government web resources and services.